Regional Weather Roundup
Issued by NWS

Home | Current Version | Previous Version | Graphics & Text | Print | Product List | Glossary On
Versions: 1 2 3 4 5 6 7 8 9 10 11 12 13 14 15 16 17 18 19 20 21 22 23 24 25 26 27 28 29 30 31 32 33 34 35 36 37 38 39 40 41 42 43 44 45 46 47 48 49 50
000
ASUS45 KABQ 211001
RWRNM
WEATHER ROUNDUP FOR NEW MEXICO
NATIONAL WEATHER SERVICE ALBUQUERQUE NM
400 AM MDT TUE OCT 21 2014

NOTE: "FAIR" MEANS FEW OR NO CLOUDS BELOW 12,000 FEET AGL WITH NO
       SIGNIFICANT WEATHER OR OBSTRUCTIONS TO VISION.

      THIS PRODUCT IS RELEASED AS TWO VERSIONS.  ONE VERSION NEAR
      THE TOP OF THE HOUR CONTAINING PRELIMINARY DATA FROM ALBUQUERQUE
      AND OTHER STATIONS.  A FINAL VERSION WITH ADDITIONAL DATA IS
      ISSUED ABOUT 10 MINUTES AFTER THE HOUR.

NMZ501-503-504-510>518-211100-
NORTHWEST PLATEAU/NORTHCENTRAL MOUNTAINS

CITY           SKY/WX    TMP DP  RH WIND       PRES   REMARKS
FARMINGTON     CLOUDY    55  43  63 E8        30.14S
LOS ALAMOS     PTCLDY    48  44  85 S5        30.23S
SANTA FE       CLOUDY    49  45  86 SE6       30.19F
TAOS           CLEAR     37  32  81 N7        30.24F WCI  32
ANGEL FIRE     FAIR      30  28  92 CALM      30.30S

$$
NMZ402-403-502-505>509-211100-
WESTCENTRAL MOUNTAINS/SOUTHWEST MOUNTAINS

CITY           SKY/WX    TMP DP  RH WIND       PRES   REMARKS
GALLUP         PTCLDY    40  38  93 CALM      30.17F
SILVER CITY    PTCLDY    52  50  93 SW3       30.14S

$$
NMZ407-409-411-412-211100-
SOUTHERN DESERTS

CITY           SKY/WX    TMP DP  RH WIND       PRES   REMARKS
LORDSBURG      FAIR      54  50  87 MISG      30.06F
DEMING         PTCLDY    55  53  93 E9        30.07F
HOLLOMAN AFB   FOG       54  54 100 E5        30.07F VSB<1/4
T OR C         CLOUDY    55  53  93 CALM      30.11R

$$
NMZ519>523-211100-
CENTRAL VALLEYS/CENTRAL HIGHLANDS

CITY           SKY/WX    TMP DP  RH WIND       PRES   REMARKS
ALBUQUERQUE    PTCLDY    53  47  79 N6        30.15F
DOUBLE EAGLE   PTCLDY    45  43  93 NW5       30.17S
MORIARTY ARPT  FAIR      45  43  93 NE3       30.20F
CLINES CORNERS CLOUDY    47  42  83 SE3       30.20F
BELEN          NOT AVBL
SOCORRO        FAIR      50  48  93 W5        30.11F

$$
NMZ524>526-539-540-211100-
SOUTHCENTRAL MOUNTAINS

CITY           SKY/WX    TMP DP  RH WIND       PRES   REMARKS
RUIDOSO        NOT AVBL

$$
NMZ527>531-211100-
NORTHEAST HIGHLANDS/NORTHEAST PLAINS

CITY           SKY/WX    TMP DP  RH WIND       PRES   REMARKS
LAS VEGAS      PTCLDY    41  40  96 E5        30.21F
RATON          CLEAR     41  37  86 NE5       30.18F
CLAYTON        CLEAR     51  43  74 W9        30.12F

$$
NMZ532>537-211100-
EASTCENTRAL PLAINS

CITY           SKY/WX    TMP DP  RH WIND       PRES   REMARKS
TUCUMCARI      CLEAR     53  46  77 W6        30.11S
CANNON AFB     PTCLDY    53  50  90 NW7       30.13S
CLOVIS AIRPORT NOT AVBL

$$
NMZ028-029-538-211100-
SOUTHEAST PLAINS

CITY           SKY/WX    TMP DP  RH WIND       PRES   REMARKS
ROSWELL        LGT RAIN  58  55  90 W3        30.11S
CARLSBAD       CLOUDY    61  57  87 NW8       30.08S
HOBBS          CLOUDY    57  55  94 CALM      30.11F


$$



USA.gov is the U.S. government's official web portal to all federal, state and local government web resources and services.